Location: Lake Sonoma
(38.7200°N, 123.0564°W)
Time: 03:24:23
(UTC-07:00)

ISS - All Passes

Search period start: 05 September 2015 00:00
Search period end: 15 September 2015 00:00
Orbit: 400 x 402 km, 51.6° (Epoch: 04 September)

Date Brightness Start Highest point End Pass type
(mag) Time Alt. Az. Time Alt. Az. Time Alt. Az.
05 Sep - 07:13:33 10° SSW 07:16:42 48° SE 07:19:51 10° ENE daylight
05 Sep - 08:50:39 10° W 08:53:16 22° NNW 08:55:52 10° NNE daylight
05 Sep - 12:07:10 10° N 12:08:17 11° NNE 12:09:25 10° NE daylight
05 Sep - 13:42:20 10° NW 13:45:24 39° NNE 13:48:29 10° ESE daylight
05 Sep - 15:19:11 10° W 15:21:39 20° SW 15:24:03 10° S daylight
06 Sep - 06:20:52 10° S 06:23:29 23° SE 06:26:08 10° ENE visible
06 Sep - 07:56:45 10° W 07:59:46 35° NNW 08:02:49 10° NE daylight
06 Sep - 09:36:02 10° NNW 09:36:57 11° NNW 09:37:50 10° N daylight
06 Sep - 12:49:14 10° NNW 12:51:56 24° NNE 12:54:38 10° E daylight
06 Sep - 14:25:22 10° WNW 14:28:27 40° SW 14:31:30 10° SSE daylight
07 Sep - 05:29:16 10° SSE 05:30:18 11° SE 05:31:28 10° ESE visible
07 Sep - 07:03:07 10° WSW 07:06:21 67° NW 07:09:36 10° NE daylight
07 Sep - 08:41:27 10° NW 08:43:17 14° NNW 08:45:06 10° NNE daylight
07 Sep - 11:56:14 10° NNW 11:58:21 16° NNE 12:00:30 10° ENE daylight
07 Sep - 13:31:54 10° NW 13:35:10 88° SSW 13:38:24 10° SE daylight
08 Sep - 06:09:50 10° SW 06:13:01 57° SE 06:16:14 10° ENE visible
08 Sep - 07:47:10 10° WNW 07:49:40 20° NNW 07:52:08 10° NNE daylight
08 Sep - 11:03:21 10° N 11:04:42 12° NNE 11:06:04 10° NE daylight
08 Sep - 12:38:37 10° NW 12:41:46 45° NE 12:44:54 10° ESE daylight
08 Sep - 14:15:45 10° W 14:17:57 17° SW 14:20:04 10° S daylight
09 Sep - 05:16:58 10° SSW 05:19:45 27° SE 05:22:35 10° ENE visible
09 Sep - 06:53:10 10° W 06:56:07 31° NNW 06:59:04 10° NE daylight
09 Sep - 08:32:46 10° NNW 08:33:21 10° N 08:33:54 10° N daylight
09 Sep - 11:45:28 10° NNW 11:48:17 26° NNE 11:51:06 10° E daylight
09 Sep - 13:21:44 10° WNW 13:24:43 34° SW 13:27:41 10° SSE daylight
10 Sep - 04:24:56 10° SSE 04:26:33 13° SE 04:28:16 10° E visible
10 Sep - 05:59:26 10° WSW 06:02:39 56° NW 06:05:52 10° NE visible
10 Sep - 07:37:58 10° NW 07:39:38 13° NNW 07:41:16 10° NNE daylight
10 Sep - 10:52:25 10° NNW 10:54:41 17° NNE 10:56:59 10° ENE daylight
10 Sep - 12:28:10 10° NW 12:31:25 74° SW 12:34:39 10° SE daylight
11 Sep - 05:06:02 10° SW 05:09:15 69° SE 05:12:31 10° NE visible
11 Sep - 06:43:37 10° WNW 06:45:58 18° NNW 06:48:18 10° NNE daylight
11 Sep - 09:59:28 10° NNW 10:01:01 13° NNE 10:02:36 10° NE daylight
11 Sep - 11:34:50 10° NW 11:38:02 53° NE 11:41:13 10° ESE daylight
11 Sep - 13:12:16 10° W 13:14:09 14° SW 13:15:56 10° SSW daylight
12 Sep - 04:13:02 10° SSW 04:15:57 32° SE 04:18:55 10° ENE visible
12 Sep - 05:49:30 10° W 05:52:22 27° NNW 05:55:14 10° NNE visible
12 Sep - 09:06:57 10° N 09:07:16 10° N 09:07:38 10° NNE daylight
12 Sep - 10:41:37 10° NNW 10:44:31 29° NNE 10:47:26 10° E daylight
12 Sep - 12:18:02 10° WNW 12:20:54 28° SW 12:23:45 10° SSE daylight
13 Sep - 03:20:41 10° S 03:22:42 16° SE 03:24:47 10° E visible
13 Sep - 04:55:41 10° WSW 04:58:51 48° NW 05:02:02 10° NE visible
13 Sep - 06:34:25 10° NW 06:35:54 12° NNW 06:37:20 10° N daylight
13 Sep - 09:48:31 10° NNW 09:50:55 19° NNE 09:53:22 10° ENE daylight
13 Sep - 11:24:22 10° WNW 11:27:36 62° SW 11:30:48 10° SE daylight
14 Sep - 04:02:10 10° SW 04:05:24 82° SE 04:08:41 10° NE visible
14 Sep - 05:39:57 10° WNW 05:42:11 17° NNW 05:44:23 10° NNE visible
14 Sep - 08:55:30 10° NNW 08:57:14 14° NNE 08:59:00 10° NE daylight
14 Sep - 10:30:57 10° NW 10:34:11 62° NE 10:37:24 10° ESE daylight
14 Sep - 12:08:51 10° WSW 12:10:15 12° SW 12:11:33 10° SSW daylight
